Theta_e
308 308 309 309 308 309 309 309 308 307 306 307 308 307 306 307 306 306 303 303 302 301 300 300 299 301 300 301 301 300 299 299 300 299 299 299 298 299 299 300 300 299 298 297 295 295 295 295 295 296 296 295 296 296 295 295 294 294 293 293 292 292 291 290 289 289 292 294 294 294 295 294 293 288 288 287 287 287 289 288 287 287 287 287 287
308 308 309 309 308 308 307 306 307 305 305 305 305 305 304 303 302 301 301 299 299 299 300 298 298 298 298 298 298 299 298 301 299 299 299 298 297 299 299 299 299 299 297 296 295 295 295 294 295 294 294 295 294 294 294 294 293 293 293 292 292 292 292 290 290 289 289 291 291 292 292 292 292 290 290 290 288 287 286 287 287 286 286 286 286
308 307 307 308 307 307 306 305 304 302 303 302 302 301 300 300 299 300 298 298 298 299 298 298 298 297 297 296 298 296 298 297 297 298 298 297 298 297 299 299 299 297 295 295 295 294 294 293 294 294 296 294 294 294 294 294 293 293 293 293 292 292 292 291 290 289 289 291 292 292 292 292 291 292 290 290 290 289 287 286 286 286 285 285 286
307 306 305 305 305 304 304 302 302 302 301 301 300 298 298 298 297 297 297 297 297 296 296 296 296 295 295 295 295 296 295 295 295 296 298 297 298 299 298 299 299 298 297 296 294 294 294 293 294 293 293 293 293 293 294 294 294 293 293 293 293 292 292 292 291 290 290 289 291 291 292 291 292 292 292 292 290 289 288 288 286 285 285 285 285
304 303 302 301 302 302 300 299 299 298 300 298 296 297 296 297 296 296 296 296 296 295 295 295 295 296 296 294 295 294 294 294 295 294 294 295 298 298 298 298 298 298 298 297 294 295 294 294 294 293 293 293 293 294 294 293 294 294 293 293 293 293 292 292 291 291 290 289 290 291 292 291 292 292 291 290 290 288 286 286 286 285 285 285 285
301 301 300 300 299 299 298 297 297 298 297 296 296 296 298 296 295 295 295 297 294 294 294 294 294 293 293 293 293 293 293 293 293 293 293 293 295 297 298 297 297 297 297 297 296 296 295 294 294 293 293 293 293 294 294 293 294 293 293 293 293 293 292 292 291 290 290 290 290 290 291 290 290 291 291 290 289 289 289 287 284 284 284 284 285
299 299 298 297 297 296 296 296 296 295 295 295 295 294 294 294 294 294 293 293 292 292 292 292 291 292 293 293 292 291 292 291 292 292 293 293 295 295 296 296 296 297 296 295 295 295 295 295 295 294 294 294 294 294 294 294 294 293 294 294 293 293 292 291 291 290 289 289 289 290 290 291 290 290 291 290 289 289 288 288 287 287 284 284 284
297 297 297 296 295 295 294 293 293 293 293 293 293 292 292 292 292 293 292 293 292 291 291 292 290 291 292 292 292 291 291 291 291 291 293 295 296 294 294 294 294 294 295 294 294 294 295 295 295 295 295 295 295 295 295 294 294 294 294 294 293 292 292 291 291 290 289 289 289 289 290 290 290 290 290 287 286 286 286 286 286 287 286 284 284
296 295 295 295 294 293 293 293 292 291 290 291 291 291 291 290 291 291 291 291 292 289 290 291 291 290 290 290 290 291 292 293 292 291 291 291 291 292 292 292 292 292 292 292 293 294 294 295 295 295 295 292 292 293 294 294 295 294 294 293 292 292 291 291 290 290 290 289 289 290 289 289 290 289 289 288 286 287 288 285 285 286 286 286 286
295 294 294 294 293 292 292 290 290 289 289 289 289 289 289 289 289 289 290 290 290 290 290 291 290 290 290 289 289 290 292 292 293 294 294 292 290 292 291 290 289 290 291 291 291 291 292 294 295 292 291 291 291 291 293 293 293 294 294 293 292 291 290 290 290 290 289 289 289 289 288 289 290 290 289 290 290 289 288 286 285 286 285 284 285
292 292 293 292 292 290 291 290 288 288 288 287 288 288 288 288 287 288 289 289 289 290 290 290 290 289 289 288 288 290 291 293 293 295 296 296 292 290 290 290 289 289 289 289 290 290 291 292 292 291 290 290 290 291 292 292 293 293 293 293 293 292 291 290 289 289 289 289 290 289 289 289 290 291 290 290 289 288 288 288 287 286 285 283 283
293 291 291 290 290 290 289 288 288 287 287 286 286 286 286 287 287 288 288 288 289 289 289 289 288 288 288 287 287 288 288 291 295 295 295 295 294 290 289 289 289 289 289 289 290 290 290 290 290 291 291 291 291 291 291 291 292 292 292 292 292 292 293 291 290 290 289 289 289 289 289 289 290 290 290 289 289 288 288 288 287 287 286 285 284
292 291 289 289 288 288 287 288 287 287 286 285 285 285 285 286 287 287 288 288 288 288 288 288 287 286 287 287 286 286 287 292 294 295 294 295 295 292 289 288 288 288 288 288 289 289 289 289 290 291 293 290 289 290 290 290 290 291 291 291 291 292 293 294 293 292 291 290 289 289 290 290 289 289 289 289 289 288 288 288 287 287 287 286 286
290 288 288 288 287 287 287 287 286 285 285 285 284 285 285 286 286 286 287 287 287 287 286 286 285 286 286 285 285 285 286 289 293 294 293 293 294 293 288 287 287 288 288 288 288 288 288 289 289 290 289 289 290 290 289 289 289 289 288 288 289 289 290 291 292 291 291 291 290 289 291 290 290 290 290 290 288 288 288 287 288 287 286 286 287
288 287 287 286 286 286 286 286 286 285 284 284 284 284 285 284 285 285 286 287 287 286 286 285 284 284 284 284 285 287 288 291 293 293 293 293 293 293 288 287 287 287 287 287 288 288 288 289 289 289 289 289 289 290 289 288 288 287 287 287 287 288 289 290 291 291 291 292 291 291 292 292 292 292 291 290 289 289 289 288 288 288 288 287 286
286 286 286 286 285 285 285 285 285 284 284 283 284 284 285 285 285 285 285 285 284 284 284 284 284 284 284 284 285 286 287 291 292 292 292 293 293 289 287 287 286 286 286 287 287 288 288 288 288 288 289 289 289 291 291 289 288 287 287 287 287 287 288 289 291 292 291 292 292 292 292 292 293 291 290 290 289 289 288 288 288 287 285 285 284
285 285 285 285 285 284 284 284 284 284 283 283 283 284 284 284 285 285 284 284 284 284 283 284 284 284 284 284 284 286 287 288 290 291 291 292 291 287 286 285 285 285 286 286 286 287 287 287 287 288 288 288 289 292 292 291 288 287 287 287 287 287 287 289 291 292 292 292 292 293 293 294 294 294 294 294 292 290 289 287 286 286 284 281 282
283 284 283 283 283 283 283 283 283 283 283 282 282 283 283 284 284 285 283 283 283 283 283 284 284 284 284 284 284 285 286 287 289 290 291 291 290 286 284 284 284 285 285 285 285 286 286 287 287 287 287 288 290 291 292 290 287 287 286 286 286 286 287 288 288 289 290 291 291 291 292 292 293 293 294 293 293 292 288 286 287 286 283 283 281
283 282 282 282 282 283 282 282 282 282 282 282 282 283 283 284 284 284 284 283 283 284 284 283 283 283 283 284 285 286 286 286 288 289 290 290 289 286 285 284 284 284 284 284 285 285 286 286 286 287 287 288 291 291 292 290 287 287 286 286 286 286 287 287 287 287 287 287 287 288 288 288 289 288 288 290 290 289 288 287 287 285 283 283 283
282 282 282 282 282 282 282 281 281 281 281 282 282 282 283 283 283 283 283 283 283 283 283 283 283 284 285 285 286 286 286 286 287 289 290 290 290 287 285 283 284 284 284 284 285 285 286 286 287 289 290 291 291 292 292 292 288 287 287 286 286 286 288 287 287 287 287 287 287 287 287 287 287 287 287 287 287 286 286 286 286 285 284 284 283
281 281 281 281 281 281 281 281 281 281 281 282 282 282 282 282 282 281 282 282 282 282 282 283 283 284 285 286 286 286 287 286 287 289 289 290 290 289 285 285 285 285 285 285 285 285 285 285 285 287 289 290 290 290 291 291 291 288 287 287 287 288 289 287 287 287 287 286 286 286 287 287 286 286 286 286 286 286 285 286 285 285 285 283 283
280 280 280 280 280 280 280 281 281 281 281 281 280 281 282 281 282 281 281 281 281 282 283 284 285 285 286 286 286 286 287 286 287 287 289 290 290 290 287 286 286 285 285 285 284 284 284 284 284 286 288 288 289 289 289 289 290 288 288 289 290 290 288 288 288 287 287 287 286 286 286 286 286 286 286 285 285 285 285 285 285 285 285 285 284
279 279 278 278 278 278 278 279 279 280 279 280 279 279 280 280 281 281 281 281 282 282 283 284 284 284 285 286 286 286 287 287 287 286 288 289 290 290 290 288 289 287 285 283 283 283 284 284 285 285 287 287 288 288 288 288 288 287 288 289 289 289 288 287 287 286 286 286 286 285 285 286 285 285 285 284 284 284 284 285 285 285 285 285 285
276 276 277 276 276 276 277 277 277 277 277 277 277 278 278 279 279 281 281 280 281 281 282 282 283 284 284 285 286 286 286 286 286 286 287 288 289 290 290 289 288 286 286 285 284 284 284 284 285 286 287 287 287 287 287 287 286 287 288 288 288 287 286 286 286 285 285 285 285 285 285 285 285 284 284 284 284 284 284 284 284 284 284 284 284
274 274 274 274 274 274 274 275 275 275 276 276 276 277 277 278 278 279 280 280 280 280 281 283 283 283 283 284 284 284 285 285 285 286 286 285 286 286 286 286 286 286 284 284 285 285 285 286 287 287 287 287 287 287 286 286 286 287 287 287 285 285 285 285 285 285 284 284 284 284 285 285 285 284 284 284 283 282 280 278 277 277 277 277 277
273 273 273 273 273 273 273 273 274 275 275 275 276 277 277 278 278 279 280 280 280 280 281 281 281 281 281 281 282 282 283 283 284 285 284 284 284 284 285 285 284 285 285 284 285 286 286 286 287 286 286 286 285 285 284 284 285 286 285 285 284 284 285 284 284 284 283 284 284 284 284 285 284 283 283 282 281 281 280 278 276 276 277 276 276
272 272 271 272 272 272 272 273 273 274 275 275 277 277 277 277 277 278 278 278 278 279 279 279 279 279 279 279 280 280 281 281 282 283 283 283 283 283 284 284 284 285 285 285 285 285 285 285 285 286 286 286 286 285 285 285 284 283 283 284 284 284 285 284 284 284 283 284 283 284 284 284 283 281 280 280 280 280 280 278 277 276 276 276 274
271 270 271 271 272 272 273 274 274 274 275 275 275 275 276 276 276 276 277 277 277 277 278 278 277 278 277 278 278 279 279 280 281 281 282 282 283 283 283 283 284 284 284 284 284 285 285 285 285 285 285 284 285 284 285 285 285 285 285 285 285 285 285 285 285 284 284 284 284 284 283 282 280 280 280 279 279 279 278 278 277 276 276 275 273
271 271 271 272 272 273 272 273 273 273 274 274 275 275 275 275 276 276 278 279 279 278 278 278 278 278 278 278 278 278 278 279 280 283 283 284 283 283 283 283 283 284 284 285 285 285 285 284 284 284 284 283 283 284 284 284 284 285 285 284 284 284 283 283 282 282 283 283 282 282 282 282 280 279 279 278 278 278 277 277 277 275 275 275 274
270 270 271 271 271 271 272 272 273 273 274 274 274 275 277 278 278 277 277 280 280 281 280 278 279 280 279 280 280 279 278 280 283 284 284 284 284 285 284 285 285 284 284 285 285 283 283 282 283 283 283 283 282 283 283 283 283 283 283 284 283 283 282 282 282 282 282 282 282 281 281 280 279 278 278 277 277 277 277 277 275 275 274 274 272
268 269 269 270 271 271 271 272 273 273 273 273 273 273 274 276 278 279 279 279 280 280 281 281 282 282 281 280 281 283 283 283 283 284 284 284 284 283 283 284 284 284 285 284 282 282 282 281 282 282 283 283 282 282 283 282 282 282 282 282 282 282 282 282 282 282 282 281 281 281 281 280 279 278 277 277 276 276 276 276 275 275 274 274 272
267 268 268 269 270 270 271 272 272 272 272 272 272 272 273 272 274 277 279 279 280 280 281 281 282 282 282 282 281 280 282 283 283 283 282 282 282 282 283 284 284 285 285 285 282 281 282 282 281 282 282 282 282 282 282 282 282 282 282 281 281 282 281 281 282 282 281 281 281 280 280 279 279 278 277 277 276 275 275 274 274 274 274 274 273
266 267 268 268 269 270 270 270 270 270 270 271 271 272 272 272 271 272 275 278 279 279 280 281 281 281 281 281 282 282 281 281 280 280 280 280 281 282 283 284 284 285 285 283 281 281 282 282 282 282 282 282 282 282 282 282 282 282 281 281 281 281 282 282 282 281 281 281 281 280 279 279 278 277 277 277 276 274 274 274 274 274 274 273 272
266 267 267 268 268 268 269 269 269 269 270 270 271 271 271 272 272 272 272 273 275 277 279 279 279 280 280 281 281 280 279 278 278 279 279 280 281 282 283 281 283 283 283 280 281 280 281 281 282 282 282 282 282 282 281 281 282 281 281 281 281 281 281 282 281 281 281 281 280 280 279 279 278 277 276 276 276 275 274 274 274 273 273 273 272
266 267 268 268 267 267 267 268 268 268 269 270 270 271 271 272 273 272 272 272 272 273 273 274 277 278 277 278 278 277 277 277 277 278 279 280 281 281 281 278 277 278 279 280 280 280 280 279 279 280 280 280 280 280 280 281 281 281 281 281 281 281 281 281 281 281 281 280 280 279 279 278 278 277 276 276 275 274 274 274 273 273 273 273 272
265 266 266 266 266 266 267 267 267 268 269 270 271 271 272 272 272 272 272 273 273 272 272 273 273 275 276 276 275 275 275 275 276 278 278 278 279 279 276 276 276 277 278 278 278 279 279 279 278 279 279 279 279 279 279 279 280 280 280 281 280 281 281 280 280 280 280 280 279 279 279 278 278 277 277 276 275 275 275 274 274 274 274 273 272
264 265 265 265 265 266 266 267 268 269 270 271 271 271 271 271 271 271 271 271 271 271 270 270 270 270 272 271 271 272 273 274 275 276 276 275 276 274 273 273 272 272 273 273 274 274 274 275 276 276 277 278 278 278 278 278 279 279 279 280 280 280 280 280 280 280 280 280 279 279 278 278 278 277 277 275 275 275 275 274 274 274 274 274 273
264 264 264 265 265 266 266 267 268 270 270 270 269 270 270 270 270 269 269 269 269 268 268 268 269 267 266 267 269 269 269 271 272 271 272 271 270 269 269 269 270 269 269 269 270 270 270 270 272 273 274 276 276 277 276 276 277 277 277 278 278 278 279 279 280 280 280 280 280 279 279 278 278 277 277 276 275 275 275 274 274 273 273 273 273
262 265 266 267 267 267 267 267 268 268 268 268 268 269 268 268 267 267 267 267 267 267 267 266 266 265 265 266 266 268 268 266 266 266 266 266 267 267 266 266 267 267 267 267 268 267 267 267 269 270 272 274 274 273 273 273 274 275 275 275 275 276 276 276 276 277 278 279 279 279 279 278 278 278 277 276 276 275 275 274 274 273 273 272 272
262 263 265 267 266 267 267 267 267 266 267 267 267 267 267 267 266 266 266 265 265 265 265 265 265 264 264 265 266 267 265 264 264 265 264 264 264 264 264 264 264 264 265 265 265 265 265 265 266 267 268 270 271 271 271 271 271 272 272 273 273 273 274 274 274 275 275 276 277 278 278 278 278 277 277 276 276 276 275 274 274 274 273 273 273
262 264 265 266 266 265 266 266 265 265 265 265 265 265 265 266 265 265 264 264 264 264 264 263 262 262 264 266 267 267 264 262 263 263 263 263 263 263 263 262 263 262 263 264 264 264 264 263 264 265 266 267 268 268 268 269 269 269 269 270 271 272 272 272 273 273 273 273 274 275 276 277 277 277 276 276 277 276 275 275 274 273 273 273 273
261 262 264 264 265 264 263 263 263 264 262 263 262 263 264 264 262 262 262 262 262 262 261 260 260 260 264 266 266 266 263 261 262 262 263 263 262 262 262 261 261 261 262 262 263 263 263 263 263 263 264 264 265 265 266 266 267 266 267 267 268 269 269 270 270 270 270 270 271 272 273 274 276 276 276 277 275 275 275 274 274 273 273 272 272
260 261 261 262 261 261 261 261 260 259 259 259 260 263 263 261 260 260 260 260 260 260 259 259 259 260 261 264 264 264 260 259 261 261 261 261 261 261 260 259 259 260 260 261 262 262 262 262 262 262 262 263 263 264 264 264 265 265 265 265 265 266 266 266 266 266 267 268 269 270 271 273 274 274 275 275 275 274 274 274 273 272 272 272 271
259 260 261 261 261 260 261 259 259 260 259 261 262 261 261 260 259 258 258 257 258 258 258 258 258 259 258 260 261 260 258 258 258 258 259 260 259 259 259 259 259 259 259 259 260 261 261 261 261 261 261 262 262 263 263 264 264 264 263 263 264 264 264 263 264 264 264 266 268 269 270 271 272 273 273 273 274 273 273 273 272 272 271 271 270
256 258 259 258 259 258 258 259 259 258 260 259 257 257 260 258 257 257 258 256 258 257 257 258 258 258 258 258 258 258 258 257 259 259 258 258 258 258 257 258 258 258 258 258 259 259 259 260 260 260 260 260 261 262 262 263 264 264 264 264 263 262 263 263 263 264 265 265 266 267 268 270 270 271 272 272 272 272 272 272 271 270 270 270 270
256 256 258 258 257 258 258 255 259 256 256 256 255 254 255 255 255 256 257 257 257 257 256 257 256 257 257 257 257 258 257 256 256 257 258 258 257 257 257 257 257 257 257 258 258 258 259 259 259 259 259 259 260 260 261 262 263 264 264 264 264 264 264 264 264 264 264 264 264 266 267 269 270 270 270 271 271 271 271 271 270 270 270 270 269
254 256 257 257 256 257 257 258 255 255 254 255 256 255 255 255 255 257 258 257 257 257 256 255 255 255 256 255 256 256 257 257 257 257 256 257 256 256 256 256 256 256 257 257 257 257 257 258 258 258 258 258 259 259 259 260 261 263 264 264 264 264 264 264 264 264 263 263 264 265 267 267 268 269 269 269 270 270 269 270 269 269 269 269 268
254 255 255 256 255 255 254 254 255 258 255 255 255 255 256 256 255 255 254 255 255 255 255 255 254 255 256 256 256 256 256 256 257 257 256 256 255 255 255 254 255 255 256 256 256 256 257 257 257 257 257 257 257 258 258 259 260 261 263 263 264 264 264 264 264 264 264 263 264 265 266 267 267 267 267 267 268 268 268 267 267 267 267 267 267
253 253 254 254 255 254 254 254 255 253 253 253 254 253 254 253 254 253 254 254 254 254 253 254 255 254 255 255 256 256 256 257 256 255 255 255 255 254 255 255 255 255 255 255 255 255 255 255 256 256 256 256 256 256 257 258 259 260 261 263 263 263 263 263 263 264 263 263 263 264 265 265 266 266 266 266 267 267 267 266 266 266 266 266 266
252 253 253 254 254 253 254 253 252 251 252 253 252 252 253 253 252 253 253 254 253 253 252 253 255 254 254 255 255 255 256 255 255 255 255 255 255 254 255 254 254 254 254 254 254 255 254 254 254 255 255 255 256 256 256 257 258 259 261 262 263 263 263 263 263 263 263 262 262 263 263 264 265 265 265 266 266 266 265 265 265 265 265 265 265
252 253 252 252 252 252 252 250 250 250 250 251 251 251 252 251 253 252 253 252 253 253 254 253 253 254 254 254 255 255 255 255 255 255 255 255 254 254 254 254 254 253 253 253 254 254 254 254 254 254 255 255 255 255 255 255 257 259 261 263 262 262 262 262 262 263 263 262 261 261 261 262 263 263 263 263 264 264 264 264 264 264 264 264 264
Wind_Speed
8 7 6 6 6 7 7 6 6 4 4 4 5 4 4 5 4 4 3 4 4 4 5 5 5 5 5 6 6 5 5 5 5 5 6 7 6 6 6 6 7 6 6 6 5 6 7 9 8 7 6 8 8 8 7 8 7 8 7 7 9 8 8 9 12 16 10 7 10 9 9 7 9 6 9 7 8 7 9 9 9 9 9 10 10
9 8 7 6 7 6 6 5 5 4 5 4 5 5 5 5 5 5 5 5 5 5 5 4 4 5 5 5 5 5 5 5 5 5 6 6 5 6 6 6 6 7 6 7 6 7 6 8 9 8 8 9 9 8 8 7 7 8 8 8 9 9 8 9 12 11 18 3 8 6 8 6 12 6 10 10 10 6 9 9 8 9 10 9 9
6 6 7 6 6 5 5 5 5 5 6 5 5 5 5 5 4 5 5 4 3 5 5 5 5 5 4 4 4 4 5 5 5 5 5 5 6 6 6 7 7 7 7 8 7 6 8 8 9 7 6 8 8 9 7 8 7 9 10 8 9 9 8 9 9 13 14 15 7 10 7 7 9 9 8 8 8 7 9 9 10 8 7 9 10
6 5 5 6 5 5 6 5 6 6 6 6 5 5 4 4 4 4 4 4 4 4 4 5 5 4 4 4 5 5 4 4 4 5 5 5 6 6 6 7 8 8 8 8 7 7 8 8 9 7 7 8 9 8 8 8 9 9 10 10 9 10 10 9 11 11 12 13 12 8 8 7 8 7 7 7 8 8 9 9 6 8 8 8 10
6 5 5 6 6 6 6 6 6 6 6 5 5 5 5 5 4 5 4 4 4 4 3 4 3 3 3 4 4 4 4 4 4 4 4 4 5 5 6 7 7 7 8 8 8 8 8 9 9 7 7 9 9 9 8 10 9 9 11 10 9 9 8 9 11 10 12 15 15 9 8 9 7 8 6 8 8 8 7 9 8 8 8 9 9
5 5 5 6 5 6 5 5 6 5 5 5 5 5 5 5 4 4 4 5 4 4 4 2 4 3 2 2 2 3 3 4 4 5 4 4 4 4 4 5 7 7 7 7 7 8 9 9 8 8 8 10 10 9 9 11 9 10 11 10 9 8 10 10 10 10 11 15 13 14 9 9 9 9 7 8 9 10 9 8 7 7 8 9 9
5 5 4 5 4 5 5 5 5 5 5 5 4 4 5 4 4 4 3 4 4 4 3 3 2 3 2 2 4 4 4 3 4 4 4 4 4 4 5 5 6 6 6 7 8 8 9 9 8 8 9 10 10 10 9 9 9 11 11 10 9 9 10 10 9 11 11 13 13 12 13 9 8 13 6 7 9 9 10 9 11 7 8 10 11
4 4 4 4 4 4 4 4 4 4 4 4 4 4 4 4 3 1 2 2 3 3 3 3 2 2 3 3 4 4 4 4 4 4 4 4 5 6 6 6 7 7 6 7 7 8 8 8 8 8 9 9 10 10 9 10 8 10 9 8 8 9 10 10 9 10 11 12 13 13 10 10 8 7 5 3 6 7 5 9 14 11 8 8 11
4 4 4 4 4 4 4 3 4 4 4 4 4 4 4 3 2 1 1 2 2 3 2 2 2 2 3 4 4 4 3 4 3 3 4 4 3 4 5 6 6 7 7 7 7 7 8 8 8 9 11 13 15 14 12 11 9 9 9 7 8 9 10 9 9 9 10 10 14 11 10 11 10 8 9 7 9 12 7 8 11 11 9 11 8
4 4 4 4 3 4 5 4 4 4 4 3 3 3 3 3 3 2 1 2 1 1 1 1 1 2 2 3 3 3 4 3 4 7 6 4 4 4 4 4 4 5 7 8 7 7 8 8 9 13 15 15 16 17 18 18 17 13 11 7 8 8 9 9 9 8 9 12 13 10 12 13 11 9 10 10 8 8 8 7 11 11 8 10 10
4 4 3 4 4 4 5 4 4 4 3 3 3 3 3 3 3 2 2 1 1 1 1 0 1 2 3 3 4 4 3 3 6 8 9 9 6 5 5 6 5 6 6 7 8 8 7 7 7 9 11 12 12 16 17 18 18 19 21 19 15 12 10 10 10 8 10 12 12 10 12 14 15 9 10 10 7 8 9 8 10 9 9 10 13
4 4 4 4 4 4 4 4 5 4 4 4 3 2 3 3 3 2 1 1 1 1 0 1 2 3 3 3 4 4 4 5 7 7 8 9 8 6 6 6 6 7 7 8 8 7 8 8 7 6 7 8 8 9 13 16 18 19 20 20 20 21 20 14 12 11 11 12 14 13 11 13 14 10 8 7 8 8 9 8 10 10 11 11 11
6 6 5 5 4 4 4 5 5 5 4 4 3 3 3 3 2 1 1 0 1 1 1 1 3 3 3 3 4 4 4 6 8 9 9 9 9 8 6 5 6 7 7 7 7 7 7 8 9 7 6 9 9 8 8 9 13 18 20 20 20 20 20 22 22 18 12 13 14 16 14 10 13 12 5 6 5 10 8 9 9 9 10 12 12
7 6 6 6 5 5 5 5 5 5 4 4 3 3 2 3 2 2 2 2 1 0 1 1 2 2 3 3 4 4 4 6 7 8 8 8 8 7 5 5 6 7 7 7 7 7 8 8 9 9 6 6 8 9 8 8 8 8 9 9 10 13 17 20 21 24 21 16 15 18 17 8 12 12 8 6 9 11 9 11 9 10 10 13 12
7 7 7 6 6 5 5 5 6 5 4 4 3 3 3 3 4 3 3 1 1 1 1 2 3 3 3 3 4 4 4 6 8 9 8 7 8 7 5 5 6 7 7 6 7 8 8 8 9 10 9 8 8 9 8 8 7 7 8 8 8 8 8 9 11 12 13 13 15 17 18 14 13 14 12 10 11 11 10 13 12 12 10 9 7
8 7 7 7 7 6 6 6 6 5 4 4 4 4 4 4 5 4 4 4 3 3 3 2 3 4 4 3 4 6 5 6 7 8 8 8 8 4 4 5 6 7 8 7 8 8 8 9 9 10 9 9 10 13 11 9 8 10 11 11 10 8 8 8 13 13 12 12 13 14 14 15 15 14 13 11 9 9 9 10 9 8 9 12 12
8 7 7 7 7 7 7 6 6 5 4 5 6 6 5 6 6 5 5 5 4 3 3 2 3 3 4 3 4 5 6 7 7 8 8 9 6 4 4 5 6 8 9 7 7 7 8 8 8 9 9 9 11 12 13 12 9 10 11 12 11 9 10 7 12 16 17 19 21 22 23 24 23 24 23 23 16 11 9 10 12 8 9 12 13
7 8 8 7 7 7 7 6 7 6 7 7 6 5 5 4 5 4 4 4 4 3 4 3 3 3 4 4 4 5 6 8 9 8 9 9 8 6 5 5 7 7 8 7 6 7 9 14 13 10 10 10 11 13 14 11 10 11 11 12 14 13 11 7 7 8 14 18 20 22 23 23 23 23 22 21 21 16 11 13 12 8 9 10 12
8 8 7 6 7 7 7 7 7 7 7 6 5 6 5 5 4 5 5 4 4 4 4 3 4 4 3 4 6 6 6 7 9 10 10 9 7 4 4 5 7 8 7 8 6 7 7 8 11 11 10 10 14 14 15 12 9 10 10 11 14 15 12 7 9 10 9 9 10 11 12 14 14 13 13 20 21 17 11 12 9 9 10 9 10
6 6 6 7 7 7 6 7 7 7 6 5 6 6 4 4 6 5 5 5 5 4 4 5 5 6 5 4 4 4 6 6 6 11 10 9 8 4 4 4 7 9 7 7 8 7 6 6 7 9 13 14 15 15 14 14 10 9 8 10 12 16 11 10 10 10 12 12 12 10 11 10 9 10 10 11 11 10 10 9 8 8 9 11 10
7 6 6 6 7 7 6 6 6 6 5 5 5 5 5 5 5 5 5 5 4 5 5 5 4 5 5 5 4 5 5 5 7 9 11 11 10 7 4 5 7 8 8 8 7 9 9 7 6 8 15 15 15 16 15 15 13 10 9 10 11 14 15 13 14 14 12 12 12 11 10 9 9 9 9 9 9 7 7 8 8 8 10 10 10
6 6 7 7 6 6 6 6 5 5 5 5 5 5 4 4 5 4 4 4 6 6 6 6 5 5 4 4 5 5 6 7 6 8 10 11 11 10 6 6 6 7 9 8 8 8 8 8 8 9 15 16 17 19 21 20 19 11 12 18 21 21 17 14 13 11 11 10 10 10 10 9 9 9 9 8 8 8 7 7 8 9 9 9 10
6 5 6 6 6 6 5 6 6 5 5 4 4 5 5 6 6 5 6 6 6 7 7 7 7 6 5 4 4 4 4 5 8 7 9 10 11 10 10 8 8 6 7 10 9 9 8 8 9 12 16 17 21 22 21 24 19 13 22 24 22 22 19 12 11 12 11 11 10 10 10 10 9 9 8 7 7 6 7 7 8 8 8 8 9
5 5 5 5 5 5 5 5 5 5 5 5 4 5 6 5 5 5 6 6 6 6 6 6 6 6 7 5 5 5 5 7 8 10 8 10 10 8 9 12 14 9 9 9 9 9 9 9 10 17 18 18 19 20 21 20 15 22 23 24 22 19 12 11 11 11 11 11 11 11 11 10 9 8 7 6 6 6 7 6 5 6 6 7 8
4 5 5 5 5 5 5 6 5 5 6 5 6 6 5 5 6 5 5 5 5 5 6 6 7 7 7 7 6 6 6 6 5 8 10 12 13 14 15 16 16 17 11 9 9 10 14 20 21 20 18 17 18 21 19 18 21 20 20 19 17 10 9 9 10 10 10 11 11 11 11 10 9 8 6 5 5 3 2 1 0 1 1 1 2
4 5 4 5 5 4 4 5 5 5 5 5 5 5 5 5 5 5 5 5 6 6 7 7 7 8 7 7 7 7 7 6 7 6 5 9 10 16 19 19 16 15 14 12 16 21 22 20 21 19 16 14 12 11 10 11 17 19 19 17 10 9 8 8 9 10 10 11 11 11 10 8 7 6 5 3 4 5 4 3 3 3 2 3 1
5 5 5 4 3 4 5 6 5 5 5 5 5 5 5 5 5 4 5 5 5 6 6 6 6 7 7 8 7 7 7 7 7 6 7 8 8 9 9 9 11 12 9 9 10 11 13 13 12 16 16 20 19 18 16 15 13 11 8 7 7 7 7 7 8 9 10 10 10 10 9 8 4 3 4 5 5 5 4 5 5 5 3 3 2
5 4 4 4 4 5 5 7 7 6 6 6 6 6 6 5 4 5 5 6 6 6 6 6 7 8 9 9 9 8 8 7 7 9 10 10 9 9 8 8 9 8 10 9 10 12 12 12 13 10 9 9 9 7 7 7 8 8 7 6 6 6 7 10 10 9 10 10 10 9 8 6 5 5 4 4 5 4 4 4 5 4 4 3 2
4 5 5 5 6 5 5 5 6 5 5 5 5 4 4 5 5 5 4 3 4 5 6 6 6 6 7 7 8 8 8 8 8 13 14 17 15 12 10 9 9 9 12 18 15 12 10 9 9 10 9 9 9 9 9 8 8 8 9 8 7 7 7 6 8 9 9 8 9 9 9 7 6 4 4 4 5 4 3 4 3 4 3 3 4
6 6 6 6 6 6 5 5 5 5 5 5 5 5 7 9 6 5 4 7 10 10 8 6 7 7 6 5 6 8 9 10 17 22 21 21 21 21 20 21 20 17 19 25 17 12 10 10 9 9 9 9 9 9 9 8 9 9 9 9 8 7 8 8 8 9 8 9 9 8 8 7 6 5 5 5 4 3 4 5 4 4 4 5 4
4 5 5 6 6 5 4 4 5 5 5 5 5 6 5 5 8 9 8 8 9 10 10 11 12 12 9 7 7 11 15 18 20 20 20 20 22 23 23 22 22 22 22 16 10 9 9 9 9 9 8 8 8 8 9 9 9 9 10 9 9 8 8 8 8 7 8 8 8 8 7 7 6 5 5 5 5 4 3 3 3 4 5 4 4
5 4 4 5 4 4 3 4 5 5 5 6 6 6 6 6 5 7 11 11 10 10 10 11 12 12 15 13 11 8 11 15 19 20 22 23 22 22 21 21 21 21 20 19 10 8 8 9 8 9 9 9 8 8 8 9 9 9 9 10 10 8 8 8 8 7 7 8 8 7 7 6 6 5 5 4 4 4 4 4 4 5 4 4 4
5 4 4 4 4 5 5 5 6 6 7 7 7 6 6 7 8 8 8 10 12 11 11 12 13 15 16 16 16 15 16 19 22 22 22 22 22 21 21 20 19 19 18 9 7 8 8 8 8 8 8 8 8 9 9 9 9 9 9 9 10 9 8 8 8 8 8 8 8 7 6 6 5 5 4 4 4 4 4 5 4 4 4 4 4
4 4 5 5 5 5 5 5 6 6 6 6 6 6 7 6 6 6 7 7 5 7 9 13 16 16 15 16 16 20 21 21 22 23 22 22 21 21 20 14 17 16 13 8 9 9 9 9 9 9 8 8 8 9 9 9 8 9 9 9 9 9 9 8 7 7 7 7 7 7 6 5 5 5 5 4 4 4 4 5 5 5 5 5 5
4 6 9 7 5 5 4 5 5 5 5 5 5 5 5 5 6 6 7 8 8 9 8 9 12 17 15 13 18 23 23 23 24 24 23 22 22 23 19 10 10 10 8 7 7 7 8 9 10 10 9 9 9 10 10 10 10 10 10 10 10 9 8 7 7 7 7 7 7 6 6 6 5 5 5 5 4 5 5 5 5 6 6 5 5
5 5 5 6 5 4 4 4 5 4 5 5 5 4 5 6 7 6 6 6 7 7 7 7 8 11 17 16 20 21 22 23 22 21 20 22 23 22 12 11 11 10 10 9 9 9 8 8 8 8 9 9 8 8 9 9 9 9 10 10 10 10 9 8 8 8 7 7 7 7 6 5 5 5 4 5 6 6 5 6 6 6 6 6 5
4 4 4 4 4 4 4 4 4 4 5 5 5 5 6 6 6 5 6 6 7 7 7 8 8 8 9 9 16 18 21 21 19 18 19 20 21 14 10 10 11 11 11 11 11 11 11 10 10 10 10 8 9 9 9 8 9 9 9 9 10 11 10 9 9 8 8 7 6 6 6 6 5 5 5 6 5 5 5 5 5 6 6 7 6
4 4 3 4 2 3 2 3 4 5 5 5 6 5 5 5 5 6 6 6 8 8 8 8 9 9 11 11 15 12 14 16 15 12 13 14 12 10 9 9 9 9 10 10 10 10 10 10 10 10 10 10 9 9 10 10 9 9 9 9 9 9 14 13 12 10 9 8 6 6 6 5 5 5 5 6 6 6 6 5 5 6 6 7 6
4 5 7 7 5 3 2 3 4 5 5 5 4 5 5 5 5 5 6 6 6 6 7 7 8 8 9 10 10 11 12 9 10 9 9 9 9 9 9 9 9 9 9 9 10 10 10 10 11 11 11 10 9 10 10 10 10 9 10 10 9 9 10 10 11 11 11 9 8 6 6 5 5 5 5 6 6 6 6 6 6 6 6 6 7
4 2 4 6 4 4 4 5 5 5 5 4 4 4 5 5 5 5 5 5 5 5 6 6 7 6 7 8 9 10 9 10 9 10 9 9 9 9 9 9 9 10 10 9 9 9 10 10 10 10 11 11 10 10 9 9 9 10 10 9 9 9 9 9 9 10 10 11 11 9 7 6 5 5 5 5 6 5 6 6 6 7 7 6 6
3 3 3 5 6 5 4 5 4 4 3 4 4 4 3 4 4 5 4 4 4 4 4 5 5 6 6 11 16 15 7 8 8 8 9 8 8 8 8 9 9 9 9 10 9 9 9 9 9 10 9 10 10 10 10 9 9 10 9 10 9 9 9 9 9 9 10 10 10 11 10 9 7 5 5 5 6 5 5 5 5 5 5 5 5
3 3 4 3 5 3 3 4 4 5 3 4 3 2 3 4 3 2 3 3 4 4 4 4 5 5 9 16 14 15 8 5 6 7 7 7 7 7 8 7 7 8 9 9 9 9 9 10 9 9 10 10 10 10 10 9 9 10 10 9 10 10 10 9 9 9 9 9 9 8 9 10 10 8 7 6 4 4 5 4 5 5 5 5 5
3 2 1 3 2 1 2 1 2 2 2 2 2 3 3 1 1 3 2 4 3 4 4 5 5 5 5 9 11 11 5 5 5 6 6 6 6 6 7 7 7 7 7 8 8 8 8 9 9 8 9 9 9 9 10 9 9 9 9 9 9 9 9 9 10 10 10 9 9 10 10 10 9 8 7 6 5 4 4 5 4 4 5 5 5
2 3 3 1 2 1 3 1 0 2 1 2 1 3 2 2 1 2 2 3 3 3 5 5 5 5 4 6 6 6 5 5 5 5 6 6 6 6 6 6 7 7 7 7 7 7 8 8 8 9 9 9 9 9 8 8 8 8 8 8 8 10 9 9 9 10 10 10 10 10 10 10 9 8 7 7 6 5 5 4 4 4 4 4 4
2 2 1 1 1 0 0 1 0 1 3 3 1 1 4 1 2 2 2 2 4 4 4 4 5 5 6 6 6 6 6 6 6 7 6 6 6 6 6 6 6 7 7 7 7 7 7 7 8 8 9 9 9 9 9 9 8 7 7 7 7 8 8 8 8 9 9 10 10 10 9 9 9 9 8 7 6 5 5 4 4 3 3 4 5
1 1 1 1 1 2 0 1 3 2 2 2 3 3 3 3 3 2 4 4 5 4 4 5 5 5 6 6 6 7 6 6 6 6 7 6 6 6 6 6 6 6 6 7 7 7 7 7 7 8 9 9 9 9 8 9 9 8 7 7 6 6 7 8 8 9 9 9 9 9 9 9 8 8 8 7 6 5 5 4 2 3 4 4 4
1 1 1 1 1 3 3 3 1 2 2 2 2 2 3 4 3 4 6 6 6 6 6 6 6 6 6 6 6 6 7 6 6 6 6 6 6 7 6 6 6 6 6 7 6 7 7 8 7 7 8 8 8 9 9 8 9 8 7 8 7 7 8 9 8 8 9 9 9 8 9 8 8 8 8 8 6 6 5 3 2 3 2 3 3
2 2 2 2 1 1 2 2 2 4 3 3 2 4 4 5 4 5 6 6 5 6 6 6 6 6 7 6 6 6 6 6 6 7 7 7 6 7 7 6 6 6 6 7 6 6 7 7 7 7 8 8 8 8 8 8 8 9 8 8 8 9 12 13 9 8 8 9 9 9 9 8 8 7 7 7 6 6 5 4 2 0 1 3 2
2 2 2 1 2 1 2 1 3 2 2 3 3 4 5 4 4 4 5 6 6 5 5 6 6 6 6 6 7 7 7 8 7 7 7 7 7 7 7 7 6 7 6 7 7 7 7 7 7 7 7 7 7 7 8 8 8 9 9 8 10 18 17 17 13 8 11 9 9 9 9 8 8 8 7 7 6 5 4 4 3 2 1 1 3
2 1 1 1 2 2 3 2 1 2 4 3 3 4 4 5 4 5 6 6 6 6 6 6 6 6 6 7 8 7 7 7 7 7 7 7 7 6 7 7 7 7 6 7 7 7 7 6 7 7 7 7 7 7 7 7 7 9 9 10 17 18 18 19 17 14 10 8 9 8 8 8 8 7 7 6 6 6 5 4 3 2 2 1 2
3 2 2 1 2 2 2 3 4 3 3 3 4 4 5 5 6 6 6 6 6 7 6 6 6 6 7 7 8 7 7 7 7 7 7 7 7 7 7 7 8 7 7 7 7 7 7 7 6 7 7 7 7 7 6 7 7 9 13 17 17 17 17 16 12 12 14 11 8 8 8 8 8 8 7 7 6 5 5 4 4 3 2 2 2
Wind_Direction
175 185 185 186 177 182 183 175 175 169 168 171 178 187 191 187 191 195 183 205 185 192 189 192 194 196 199 204 203 210 206 207 200 186 186 192 196 193 190 193 211 226 223 234 232 229 230 236 239 232 219 230 236 236 232 231 229 232 230 231 236 231 229 241 252 270 262 227 259 258 259 260 265 212 251 240 243 236 236 240 240 239 241 244 247
179 180 183 178 180 180 177 169 168 168 175 184 184 189 190 185 183 172 183 206 168 181 185 195 199 198 200 206 201 203 204 202 207 195 194 195 203 197 194 195 212 226 221 233 228 232 232 236 237 229 221 231 235 237 231 228 228 230 232 228 234 237 220 234 252 258 276 216 252 240 259 207 259 204 237 244 247 227 236 236 234 229 235 240 242
175 172 172 174 178 177 166 169 169 174 177 190 191 192 188 179 170 169 173 187 173 169 190 196 203 202 204 208 207 204 206 207 208 205 203 194 200 208 201 199 210 220 226 230 228 225 235 239 243 236 232 238 240 240 233 236 230 232 237 230 236 235 229 224 244 260 265 271 238 263 241 243 234 252 230 240 247 229 238 235 235 233 230 235 240
170 167 164 169 171 169 174 172 172 179 183 190 188 195 185 180 169 171 182 177 184 201 184 193 185 190 202 219 219 220 219 218 219 209 206 200 203 210 209 210 213 216 221 226 226 224 232 239 240 229 228 238 241 238 235 234 233 235 237 236 233 236 230 226 231 244 265 274 263 235 259 247 255 249 255 252 248 245 238 251 229 236 233 232 236
158 163 161 166 171 172 179 174 174 182 185 183 189 187 184 179 170 173 173 184 190 180 200 175 177 192 220 229 229 220 217 222 230 233 227 216 213 210 206 212 219 222 223 223 220 223 229 234 241 226 225 237 241 237 231 231 234 235 240 237 236 237 235 232 236 237 254 259 271 256 249 257 253 260 238 255 255 248 247 245 240 236 237 235 240
154 157 160 165 175 176 181 174 178 180 179 180 186 184 176 170 170 178 170 185 186 181 179 186 180 209 230 258 261 246 235 225 225 231 230 231 232 235 226 213 214 221 229 228 226 224 229 234 235 226 226 233 243 241 235 236 235 236 239 241 236 235 238 238 238 242 245 257 262 278 253 253 269 249 241 233 250 262 257 248 247 235 241 249 239
152 155 159 165 171 184 181 183 176 176 177 180 170 164 164 166 156 175 175 170 172 186 192 171 177 174 225 274 279 271 269 254 237 233 232 233 240 244 249 248 241 229 224 226 228 227 231 235 236 229 232 237 245 246 245 244 239 241 240 243 236 236 239 240 237 242 246 257 265 258 272 260 241 270 242 216 235 238 257 274 263 231 233 238 254
143 147 153 167 171 183 183 175 163 166 163 152 148 149 140 135 141 142 145 178 178 179 179 177 213 173 212 233 252 258 263 270 268 256 243 233 227 232 235 240 245 248 244 237 230 230 230 234 238 238 238 241 243 249 243 250 245 250 245 242 241 238 242 243 241 241 248 253 257 267 261 270 263 250 262 218 256 257 227 246 263 263 243 233 231
148 150 150 162 179 164 145 131 124 117 124 125 126 125 127 127 123 124 148 184 175 184 182 166 193 226 236 226 242 255 254 257 253 257 266 279 259 251 247 244 244 250 254 251 246 240 239 238 239 240 236 239 237 238 239 238 245 253 250 235 241 239 245 246 245 246 253 255 264 262 269 269 261 264 260 237 237 253 240 216 252 258 259 263 248
143 142 146 160 144 119 115 107 108 107 100 111 122 117 119 122 131 143 169 194 184 170 155 173 180 215 250 275 269 259 255 255 254 257 250 242 258 266 275 269 262 260 260 262 260 252 250 246 247 243 242 240 238 238 239 239 239 242 252 243 244 242 244 247 246 245 252 258 259 268 268 266 266 251 259 251 248 254 252 233 250 259 255 261 265
121 128 134 110 107 107 104 109 103 108 119 109 113 120 132 131 135 152 180 177 161 126 100 113 276 249 238 246 264 267 261 252 249 245 245 249 250 262 266 273 280 278 273 269 268 267 262 257 256 254 252 253 251 248 246 244 242 242 244 243 241 241 250 250 251 245 250 258 265 262 262 271 269 261 255 266 248 244 247 242 249 259 255 261 271
102 90 96 95 94 100 110 107 101 100 92 94 96 101 104 106 115 133 138 99 76 79 56 242 250 256 247 247 245 250 255 263 262 256 248 249 247 245 254 260 263 262 265 266 270 275 278 276 268 260 253 250 250 252 249 246 246 246 245 244 242 241 239 241 251 254 246 256 265 260 260 263 276 269 266 261 260 254 249 245 248 250 255 254 257
84 78 71 73 74 81 86 91 88 79 79 85 85 82 85 86 96 97 121 168 102 120 230 235 255 264 254 261 269 267 263 262 259 256 251 246 247 244 251 255 258 264 265 267 270 273 275 276 280 271 269 266 256 255 255 254 246 245 246 247 246 242 242 243 241 244 253 253 260 268 256 261 272 271 256 261 259 261 260 257 250 246 249 254 257
76 72 64 58 60 66 76 84 83 81 77 78 86 94 97 103 97 94 88 63 79 27 342 312 301 300 286 278 281 284 281 285 275 268 259 254 253 253 252 256 260 264 266 268 270 271 266 271 278 279 272 267 263 263 262 258 261 258 253 247 247 246 244 245 246 247 246 249 255 262 267 250 259 273 271 264 268 266 266 263 262 258 252 251 253
65 63 59 49 47 49 65 71 72 67 65 71 79 82 80 70 56 43 72 78 68 346 310 321 303 295 299 304 308 297 288 286 287 284 277 267 266 265 268 271 273 273 271 268 267 264 268 267 268 271 273 264 258 260 267 269 269 268 265 264 253 248 241 238 241 244 246 247 251 257 267 266 263 267 270 263 256 257 256 261 262 265 272 273 269
59 56 54 47 45 41 50 54 51 48 46 50 57 44 39 40 40 26 40 23 17 22 353 1 321 316 301 308 307 299 289 284 286 285 284 283 279 272 268 268 269 270 268 264 263 264 265 265 266 268 267 268 267 266 270 276 277 277 276 275 272 265 255 242 245 244 242 246 249 256 262 264 263 262 262 259 256 256 258 261 263 260 264 263 265
51 51 52 44 44 40 40 49 47 42 39 44 37 29 25 20 22 28 32 12 11 356 329 304 286 291 293 289 286 286 293 294 290 283 281 284 288 274 264 262 261 262 265 261 262 264 263 261 263 267 272 271 272 276 277 280 279 279 279 280 278 274 271 261 254 258 258 256 257 257 260 262 263 263 264 265 264 260 261 262 260 253 247 258 264
43 46 46 40 41 45 40 44 47 35 37 35 21 13 8 13 29 17 23 349 341 313 298 302 294 282 279 283 272 279 286 295 294 288 281 276 268 266 264 267 269 268 275 270 264 266 259 259 260 264 270 273 276 276 277 278 277 277 279 282 285 283 278 274 273 264 258 260 262 263 262 263 264 266 268 268 267 264 260 258 267 270 254 247 262
37 40 42 37 36 41 40 41 42 36 33 20 8 5 359 2 6 8 358 345 321 304 308 314 313 313 305 293 294 288 289 297 296 289 282 274 272 267 268 274 282 279 280 282 272 257 269 263 262 265 269 274 279 281 279 276 273 273 275 280 281 281 280 287 282 281 278 274 265 266 265 265 265 262 261 261 261 260 252 256 267 262 263 264 262
31 40 40 38 38 36 35 39 37 36 26 8 6 358 348 10 1 355 345 331 317 326 343 336 318 310 310 299 291 276 287 294 297 297 295 292 287 277 262 276 279 283 284 287 296 287 267 275 281 286 288 290 291 290 286 280 273 273 273 272 275 278 289 285 276 276 279 277 275 266 263 258 256 252 253 255 257 250 248 244 249 250 256 263 256
31 38 35 36 37 36 31 35 34 30 23 11 360 354 358 1 350 349 340 333 337 332 330 322 315 308 311 305 301 300 286 293 296 295 300 303 302 290 265 255 268 279 291 296 292 299 304 302 302 299 304 303 302 300 297 295 291 283 276 270 268 278 286 284 282 277 276 276 274 270 264 257 252 249 248 250 247 243 237 236 237 236 244 255 258
29 38 39 37 35 31 30 27 32 33 16 15 14 8 358 6 351 340 332 340 343 338 333 327 322 315 313 306 297 293 294 288 288 297 290 288 290 284 272 268 263 288 300 299 301 302 302 308 308 304 304 303 303 302 300 299 297 292 280 280 279 279 279 276 281 281 277 275 272 269 268 259 254 251 249 244 239 237 237 236 238 240 236 245 249
32 42 45 41 33 28 25 32 28 23 18 16 20 20 4 8 1 358 360 354 349 340 333 328 326 322 320 313 304 300 308 319 306 293 287 286 281 282 283 287 297 305 302 300 303 298 299 299 298 299 301 302 304 303 301 298 296 285 282 280 279 278 279 279 280 280 277 275 272 271 268 263 258 255 250 244 238 232 234 235 240 242 244 248 244
37 43 46 42 33 25 27 32 25 20 18 18 23 30 14 10 5 1 2 352 344 340 332 330 327 327 331 339 341 346 4 6 338 325 301 289 294 314 337 342 340 327 312 301 301 299 300 298 300 301 298 295 292 297 300 299 289 285 283 283 282 283 282 281 278 277 277 276 272 268 267 263 263 258 251 242 234 228 234 240 250 254 256 256 259
49 50 46 42 36 18 25 31 23 24 18 18 24 20 14 7 9 358 1 356 352 347 335 339 338 334 337 341 351 358 353 337 330 325 355 21 13 1 346 336 331 327 317 307 301 298 297 299 298 295 292 290 288 295 294 287 283 282 280 278 279 278 276 273 275 275 273 272 271 269 267 265 260 256 248 232 230 218 190 295 360 332 2 354 43
61 53 45 43 37 22 36 32 26 24 22 19 24 18 18 3 8 355 9 12 5 355 348 348 342 340 338 341 343 342 341 338 340 336 15 352 348 340 333 326 317 310 299 292 291 293 296 293 290 292 292 290 288 285 282 278 279 277 277 278 276 273 269 273 271 273 272 274 273 272 272 274 265 248 231 211 210 222 214 218 220 267 192 197 184
68 60 47 43 37 34 38 35 25 22 24 22 24 25 17 13 6 7 14 10 5 1 353 342 335 337 336 335 332 332 331 335 331 330 346 332 324 322 320 320 313 307 300 297 293 290 287 285 287 289 287 284 280 276 274 279 281 279 273 264 263 262 263 260 264 270 275 277 278 278 280 274 262 223 205 208 222 227 200 213 222 227 195 209 162
64 58 49 40 38 32 34 28 29 26 25 22 19 16 14 10 7 4 2 356 353 350 346 338 338 336 336 333 328 330 330 334 334 337 331 325 321 319 315 313 312 306 300 295 291 289 290 290 287 283 283 284 286 288 284 279 277 285 283 274 265 262 267 271 274 273 273 274 276 278 278 269 245 236 226 221 227 224 198 201 211 209 198 162 143
58 53 44 39 35 27 26 25 24 21 16 22 24 10 354 359 359 353 338 342 337 332 330 328 324 323 319 319 321 319 322 327 327 325 322 324 324 321 321 318 313 305 301 302 300 298 297 293 288 291 294 296 301 301 303 301 298 296 294 292 290 287 284 281 280 279 279 278 276 275 275 268 259 234 225 229 228 217 193 200 212 186 201 192 206
47 41 33 33 26 19 14 12 18 14 13 11 12 14 14 13 5 360 339 339 338 330 326 316 314 313 314 308 307 313 316 314 319 324 324 323 323 322 319 316 313 309 306 306 305 299 294 293 293 295 298 298 298 300 303 306 306 304 301 296 291 287 286 284 280 280 277 275 276 274 273 268 254 237 223 233 234 207 201 198 202 181 183 197 179
46 40 30 29 20 8 355 6 8 14 7 15 7 8 358 9 6 4 357 337 330 329 327 324 326 329 325 317 311 310 314 319 323 324 326 329 327 322 318 315 313 311 310 308 302 297 295 294 295 296 295 296 298 302 307 308 307 305 301 299 295 290 286 283 280 277 278 278 275 272 270 263 257 241 235 231 225 204 186 185 168 192 201 195 176
51 37 35 23 10 2 6 11 9 12 11 13 10 4 359 351 352 359 353 342 337 332 326 329 332 336 337 335 331 322 322 328 335 337 334 328 323 321 320 320 320 319 317 316 303 294 294 297 296 297 300 300 301 303 304 303 301 301 300 300 298 295 290 284 284 284 282 280 276 272 266 260 252 243 236 235 212 202 189 189 187 196 204 200 193
49 38 27 16 4 10 13 17 12 11 8 5 3 360 359 356 350 343 348 346 341 339 337 340 344 346 344 340 338 340 346 346 341 336 331 329 328 326 326 329 331 332 331 326 308 306 305 305 302 300 302 302 303 304 303 301 300 299 297 295 297 299 295 288 290 286 279 274 271 266 260 254 250 245 237 222 206 209 203 199 201 196 198 196 184
39 39 26 15 16 12 16 13 9 7 3 359 356 355 353 347 335 324 326 330 340 348 351 353 350 346 345 347 353 357 351 345 341 337 335 334 335 335 338 337 334 338 344 337 329 324 323 322 322 321 317 314 313 315 312 307 306 304 302 298 296 297 294 292 288 284 280 276 271 264 257 251 244 237 235 226 218 214 204 206 192 193 203 200 184
33 35 34 30 26 16 9 7 2 358 355 355 349 344 334 334 337 340 343 346 343 343 345 345 347 351 350 354 0 356 350 346 344 341 341 345 348 344 343 335 339 341 344 339 331 329 334 335 331 332 333 332 328 325 322 322 320 316 312 309 306 302 299 296 288 286 283 281 273 268 259 253 243 232 228 224 216 214 213 203 203 202 204 199 178
35 36 28 31 21 14 3 357 350 348 347 340 337 331 343 347 350 347 345 340 339 339 339 344 344 345 352 359 358 353 347 345 343 346 352 357 353 352 348 343 342 343 343 343 343 338 335 332 330 328 327 326 326 324 323 322 321 320 321 319 317 311 305 300 296 291 286 281 273 270 268 256 241 231 228 229 223 221 215 209 205 208 207 204 182
36 36 34 22 14 356 347 340 329 342 347 343 347 360 356 354 351 350 348 348 347 348 347 342 341 345 356 357 354 348 348 346 348 357 1 2 0 3 356 354 350 347 351 349 347 347 346 344 338 332 330 326 323 325 327 325 325 323 323 325 324 322 316 308 301 294 291 283 276 266 259 254 241 233 221 229 229 224 220 212 211 209 209 204 178
39 31 29 10 346 342 344 334 328 357 2 15 6 353 355 354 358 356 354 353 353 350 348 349 352 352 350 346 351 348 345 344 354 2 3 6 6 4 360 352 352 349 347 347 348 347 343 337 335 331 327 325 333 339 335 330 328 326 327 326 327 329 332 329 322 311 299 287 283 274 263 256 243 238 232 232 230 224 222 212 209 210 210 201 187
21 29 31 24 25 8 346 341 353 25 13 17 352 5 358 2 1 357 355 355 348 350 351 350 350 352 346 342 339 341 347 349 360 359 358 0 3 1 356 355 350 350 344 344 343 347 340 337 333 332 329 329 341 340 337 331 329 332 334 330 330 332 337 337 334 333 331 320 305 290 278 267 256 245 236 237 239 231 224 215 208 207 200 202 201
22 343 8 29 20 15 11 15 27 25 9 11 355 9 5 3 3 356 350 349 347 352 348 349 344 339 335 335 343 348 359 353 353 351 350 354 357 358 356 355 352 347 343 340 344 344 341 333 330 331 333 334 339 339 334 331 335 335 332 331 331 331 334 335 335 334 332 332 330 322 306 291 275 262 247 241 244 236 231 219 213 207 207 205 209
1 357 2 17 26 21 13 28 23 14 7 5 5 358 356 2 355 351 344 341 340 338 337 333 327 321 333 343 349 355 6 347 343 346 346 348 347 348 350 351 347 343 339 337 338 338 337 333 330 331 332 335 335 336 334 336 336 334 335 333 333 331 331 334 336 337 337 338 336 332 328 322 307 283 263 251 253 251 242 234 217 212 208 204 195
7 347 10 357 17 11 23 7 16 1 350 12 341 342 348 340 333 325 339 334 331 333 328 327 321 319 334 342 349 351 358 331 338 339 339 342 342 341 342 340 339 337 336 333 333 334 333 330 325 328 330 333 335 335 334 335 337 337 335 335 335 335 338 339 341 336 332 327 325 324 325 325 323 314 296 290 274 263 250 236 224 212 204 194 189
339 331 329 2 2 21 25 336 3 339 349 323 296 321 333 334 310 331 333 332 333 333 337 325 316 318 327 331 341 343 341 326 335 332 331 332 333 333 333 331 330 329 326 325 324 328 327 326 326 326 328 327 331 334 334 332 336 336 336 336 336 340 338 338 336 334 330 324 321 320 321 320 322 318 311 302 289 276 258 247 231 215 208 193 184
340 341 352 357 1 38 349 3 322 300 269 313 345 333 326 349 341 345 338 332 323 323 319 307 303 313 312 322 330 335 328 331 325 325 325 325 323 324 321 321 323 325 324 323 322 324 325 326 325 325 326 326 328 329 326 330 332 334 336 335 335 338 336 335 331 329 323 317 318 320 321 321 321 319 314 306 299 283 271 249 234 220 208 196 180
355 358 1 360 334 6 246 294 250 278 323 338 342 334 346 339 342 327 330 319 310 318 310 309 315 317 320 325 329 327 323 320 319 319 315 315 313 310 311 313 319 321 321 320 320 321 321 323 322 323 324 325 328 329 328 327 325 323 328 329 331 332 329 326 322 311 307 316 320 318 316 318 319 321 318 313 306 295 285 258 239 219 204 199 183
353 320 310 279 255 280 268 318 348 354 335 340 329 338 322 334 321 322 324 320 322 317 319 317 318 318 317 316 316 318 312 309 306 303 305 306 307 305 304 307 309 312 313 314 315 317 318 320 321 321 322 322 324 324 324 324 322 319 323 322 321 322 323 320 319 316 319 321 315 310 313 317 317 319 321 318 309 300 291 283 257 221 220 205 199
302 284 263 267 337 335 343 336 351 317 326 315 333 323 326 322 320 329 325 323 316 320 318 315 316 311 309 306 309 305 305 304 300 301 299 298 298 301 301 304 307 308 310 311 311 311 313 315 316 316 317 316 318 319 321 323 324 319 324 327 318 331 340 334 328 329 325 313 304 306 318 321 323 326 330 331 329 323 317 302 283 226 215 186 177
323 326 329 333 332 345 318 331 329 326 332 332 323 324 318 317 325 320 319 314 315 311 308 304 302 297 301 301 297 297 297 295 294 295 295 295 293 294 297 298 300 301 304 305 307 306 308 308 311 312 312 315 318 319 317 321 321 322 322 327 325 339 342 339 328 329 335 327 319 318 320 322 326 330 331 333 333 330 328 334 356 46 116 136 132
334 331 338 323 320 301 302 304 308 313 308 308 319 318 311 312 303 302 300 298 297 297 296 296 295 297 295 294 297 294 293 295 295 294 293 291 292 292 291 293 296 298 300 300 303 303 301 303 306 306 305 307 308 311 313 317 320 319 318 318 332 340 342 340 335 330 339 336 329 326 326 325 329 329 331 333 335 334 339 348 3 13 35 68 112
307 314 299 300 295 285 293 296 283 281 283 290 293 294 297 295 294 292 290 292 292 290 290 287 287 289 292 295 297 294 293 293 293 292 291 290 289 289 292 294 296 294 294 295 297 297 297 298 300 300 304 303 304 305 308 311 314 313 308 320 334 338 342 341 333 334 355 344 337 331 330 326 329 331 334 337 336 343 352 358 357 7 22 64 93
305 300 299 279 272 273 278 281 282 277 277 279 279 276 280 283 280 281 284 285 283 285 285 285 285 287 286 282 282 286 288 285 284 285 287 288 289 291 293 296 295 297 294 293 293 293 293 294 294 297 299 300 302 302 305 305 309 302 315 327 331 333 340 342 334 337 356 357 339 337 335 335 335 340 341 344 341 348 350 355 4 8 16 32 73